Regional Weather Roundup
Issued by NWS Charleston, SC

Current Version | Previous Version | Text Only | Print | Product List | Glossary Off
Versions: 1 2 3 4 5 6 7 8 9 10 11 12 13 14 15 16 17 18 19 20 21 22 23 24 25 26 27 28 29 30 31 32 33 34 35 36 37 38 39 40 41 42 43 44 45 46 47 48 49 50

000
ASUS42 KCHS 061127
RWRCHS

REGIONAL WEATHER ROUNDUP
NATIONAL WEATHER SERVICE CHARLESTON SC
700 AM EDT MON JUL 06 2015

NOTE: "FAIR" INDICATES FEW OR NO CLOUDS BELOW 12,000 FEET WITH NO
SIGNIFICANT WEATHER AND/OR OBSTRUCTIONS TO VISIBILITY.

NOT ALL STATIONS ARE QUALITY CONTROLLED BY THE NATIONAL
WEATHER SERVICE. USE DATA WITH CAUTION...ESPECIALLY
DEWPOINT OBSERVATIONS.

SCZ027-030-031-034>040-042>050-061200-
...SOUTHEAST SOUTH CAROLINA...

CITY           SKY/WX    TMP DP  RH WIND       PRES   REMARKS
N CHARLESTON   PTCLDY    72  69  90 SW5       30.13R
WATERFRONT PAR   N/A     74  70  87 VRB3      30.10S
MOUNT PLEASANT LGT RAIN  73  70  88 SW3       30.14R
JOHNS ISLAND   FAIR      75  72  88 CALM      30.13R
PINOPOLIS      NOT AVBL
MONCKS CORNER  FOG       72  68  88 CALM      30.14R VSB 1
SUMMERVILLE    CLOUDY    70  70 100 CALM      30.15R FOG
BEAUFORT MCAS  CLOUDY    71  69  93 W5        30.14R FOG
BEAUFORT ARPT  CLOUDY    72  72 100 W9        30.14R FOG
HILTON HEAD IS CLOUDY    72  72 100 SW6       30.15R
WALTERBORO     CLOUDY    70  70 100 SW5       30.15R FOG
ALLENDALE      CLOUDY    72  72 100 CALM      30.13S

...SOUTHERN MIDLANDS AND PEE DEE...

CITY           SKY/WX    TMP DP  RH WIND       PRES   REMARKS
GEORGETOWN     NOT AVBL
KINGSTREE      NOT AVBL
ORANGEBURG     CLOUDY    72  70  93 SW7       30.13R FOG
BARNWELL       CLOUDY    73  73 100 SW5       30.15R
AIKEN          NOT AVBL
MANNING        CLOUDY    70  70 100 SW7       30.14R
COLUMBIA       CLOUDY    74  70  87 SW6       30.11R
SUMTER         CLOUDY    72  70  93 SW3       30.10S
FLORENCE       MOCLDY    73  71  93 SW7       30.12R
MYRTLE BEACH   PTCLDY    75  70  83 CALM      30.15R
N MYRTLE BEACH CLEAR     76  72  87 VRB3      30.13R

$$

GAZ063-065-086>088-099>101-113>116-118-119-134>141-150-061200-
...SOUTHEAST GEORGIA...

CITY           SKY/WX    TMP DP  RH WIND       PRES   REMARKS
SAVANNAH ARPT  CLOUDY    72  70  94 W5        30.16R FOG
HUNTER AAF     CLOUDY    71  71 100 W6        30.13R
FORT STEWART   CLOUDY    72  69  88 SW6       30.13R
STATESBORO     NOT AVBL
SYLVANIA       MOSUNNY   73  73 100 CALM      30.15R
CLAXTON        CLOUDY    72  72 100 CALM      30.15R

...CSRA...CENTRAL AND FAR SOUTHEAST GEORGIA...

CITY           SKY/WX    TMP DP  RH WIND       PRES   REMARKS
THOMSON        MOCLDY    72  72 100 CALM      30.18R
AUGUSTA-BUSH   CLOUDY    72  71  97 CALM      30.12R
AUGUSTA-DANIEL CLOUDY    73  70  90 SW6       30.14R
SWAINSBORO     CLOUDY   N/A N/A N/A SW3       30.16R
VIDALIA        CLOUDY    72  70  94 SW5       30.16R
EASTMAN        PTSUNNY   72  72 100 CALM      30.17R
HAZLEHURST     CLOUDY    73  73 100 CALM      30.15R
ALMA           CLOUDY    71  69  93 CALM      30.15R
WAYCROSS       CLOUDY    72  72 100 CALM      30.16R FOG
JESUP          CLOUDY    72  72 100 W3        30.16R
BAXLEY         CLOUDY    72  70  94 CALM      30.15S
BRUNSWICK      MOCLDY    68  68 100 W3        30.16R
SAINT SIMONS   CLEAR     70  69  97 NW5       30.14R

$$

SCZ027-028-034-036>038-045-046-048>050-GAZ119-141-061200-
...LAKE AND SUPPLEMENTAL COASTAL OBSERVATIONS...

STATION/POSITION TIME  TEMP    WIND        PRES    WAVE   SWELL
                       AIR SEA DIR/SP/G            HT/PER HT/PER/DIR
                 (UTC) (F)     (DEG/KT/KT) (MB)    (FT/S) (FT/S/D)
UPR LAKE MARION  NOT AVBL
WINYAH BAY       1045   73     250/  2     1019.0S
LAKE MURRAY      1100   75     240/  5/  7 1019.0R
ACE BASIN NERRS  NOT AVBL
FORT PULASKI     1100   71 83  250/  6/  8 1021.4R
SAPELO ISLAND    1100   71     290/  5     1021.0R

$$

ANZ835-935-AMZ111-154-330-350-352-354-370-450-454-472-061200-
...C-MAN AND BUOY OBSERVATIONS...

STATION/POSITION TIME  TEMP    WIND        PRES    WAVE   SWELL
                       AIR SEA DIR/SP/G            HT/PER HT/PER/DIR
                 (UTC) (F)     (DEG/KT/KT) (MB)    (FT/S) (FT/S/D)
BUOY 41004       1050   80 81  230/  8/ 10 1019.9R   3/ 8   3/ 8
BUOY 41008       1050   76 79  270/ 10/ 12 1020.6R   2/ 8   2/120/ 8
FOLLY BEACH CMAN 1100   73     270/  4/  5 1020.2R
CAPERS NEARSHORE 1008   78     280/  8/ 10 1020.1R
FRIPP NEARSHORE  1000   77     250/ 10/ 12 1020.1R


STATION/POSITION TIME  TEMP    WIND        PRES    WAVE   SWELL
                       AIR SEA DIR/SP/G            HT/PER HT/PER/DIR
                 (UTC) (F)     (DEG/KT/KT) (MB)    (FT/S) (FT/S/D)
5E ST. MARYS GA  1021      76                N/A     2/ 8
FRYING PAN BUOY  1050   81 79  210/  8/ 10 1020.7F   3/ 5   3/190/ 5
BUOY 41025       1050   79 81  230/ 10/ 12 1020.7S   2/ 9   2/120/ 9
CAPE LOOKOUT NC  1100   79     200/  9/ 11 1020.6R
BUOY 41002       1050   81 80  200/ 10/ 12 1022.4R   3/ 7   3/170/ 7
BUOY 41010       1020   84 83  180/ 12/ 16 1020.2R
ST AUGUSTINE FL  1100   70 71  280/  3/  3 1021.4S


$$


USA.gov is the U.S. government's official web portal to all federal, state and local government web resources and services.